Location: �perlecques
(50.8057°N, 2.1521°E)
Time: 22:51:59
(UTC+00:00)

Transit 2A Rocket - Visible Passes

Search period start: 28 July 2021 00:00
Search period end: 07 August 2021 00:00
Orbit: 589 x 913 km, 66.7° (Epoch: 28 July)

Date Brightness Start Highest point End Pass type
(mag) Time Alt. Az. Time Alt. Az. Time Alt. Az.
28 Jul 5.9 00:20:39 10° NW 00:25:37 36° WSW 00:26:48 33° SW visible
28 Jul 6.2 21:55:20 10° NNW 22:00:16 38° NE 22:05:01 13° ESE visible
28 Jul 5.4 23:37:48 10° NW 23:43:07 56° WSW 23:44:52 40° S visible
29 Jul 7.3 01:23:38 10° W 01:24:44 11° WSW 01:24:44 11° WSW visible
29 Jul 6.6 21:12:47 10° NNW 21:17:21 28° NE 21:22:13 10° E visible
29 Jul 5.1 22:55:05 10° NW 23:00:31 84° SW 23:03:00 36° SSE visible
30 Jul 6.8 00:38:52 10° WNW 00:42:29 18° WSW 00:42:52 18° WSW visible
30 Jul 6.9 20:30:14 10° NNW 20:34:19 22° NNE 20:38:40 10° ENE visible
30 Jul 5.3 22:12:27 10° NW 22:17:50 68° NE 22:21:11 26° SE visible
30 Jul 6.3 23:55:31 10° NW 00:00:09 28° WSW 00:01:04 26° SW visible
31 Jul 5.8 21:29:52 10° NNW 21:35:03 47° NE 21:39:25 16° ESE visible
31 Jul 5.8 23:12:31 10° NW 23:17:41 42° WSW 23:19:18 35° SSW visible
01 Aug 6.3 20:47:19 10° NNW 20:52:11 34° NE 20:57:24 10° ESE visible
01 Aug 5.3 22:29:43 10° NW 22:35:09 65° WSW 22:37:34 35° S visible
02 Aug 7.2 00:14:25 10° WNW 00:16:54 13° WSW 00:17:27 13° WSW visible
02 Aug 6.7 20:04:46 10° NNW 20:09:13 26° NNE 20:13:57 10° E visible
02 Aug 5.2 21:47:02 10° NW 21:52:31 86° NE 21:55:53 26° SE visible
02 Aug 6.7 23:30:31 10° WNW 23:34:37 21° WSW 23:35:46 20° SW visible
03 Aug 5.5 21:04:25 10° NNW 21:09:48 59° NE 21:14:15 17° ESE visible
03 Aug 6.3 22:47:19 10° NW 22:52:13 32° WSW 22:54:08 26° SSW visible
04 Aug 5.9 20:21:51 10° NNW 20:26:59 42° NE 20:32:29 10° ESE visible
04 Aug 5.7 22:04:25 10° NW 22:09:44 50° WSW 22:12:33 28° S visible
05 Aug 5.3 21:21:40 10° NW 21:27:10 75° SW 21:31:00 22° SSE visible
05 Aug 7.2 23:05:46 10° WNW 23:09:02 16° WSW 23:10:53 14° SW visible
06 Aug 5.3 20:39:00 10° NW 20:44:30 75° NE 20:49:30 15° SE visible
06 Aug 6.7 22:22:14 10° WNW 22:26:42 25° WSW 22:29:23 18° SSW visible
